1531098000.6,46871,20.5,74160.8,2.41,-6.31,-9.89,0,*7A
1531098001.81,46872,20.5,74158.5,2.41,-6.59,-10.15,0,*4A
1531098003.01,46873,20.5,74160.5,2.41,-6.51,-10.09,0,*4E
1531098004.24,46874,20.5,74160.3,2.43,-6.73,-10.35,0,*44
1531098005.44,46875,20.5,74164.5,2.41,-6.85,-10.23,0,*49
1531098006.66,46876,20.5,74160.0,2.43,-6.73,-9.97,0,*76
1531098007.88,46877,20.5,74160.3,2.41,-6.47,-9.57,0,*7E
1531098009.09,46878,20.5,74162.5,2.41,-6.23,-9.31,0,*73
1531098010.28,46879,20.5,74158.0,2.41,-5.97,-9.05,0,*79
1531098011.51,46880,20.5,74160.3,2.41,-5.81,-9.01,0,*7C
1531098012.74,46881,20.5,74160.0,2.39,-5.89,-8.75,0,*78
1531098013.99,46882,20.5,74160.5,2.41,-5.93,-8.03,0,*7E
1531098015.21,46883,20.5,74162.8,2.41,-5.73,-7.23,0,*7C
1531098016.45,46884,20.5,74162.0,2.43,-5.39,-6.23,0,*76
1531098017.67,46885,20.5,74162.3,2.41,-4.77,-5.55,0,*7C
1531098018.92,46886,20.5,74160.0,2.43,-4.25,-5.07,0,*7D
1531098020.17,46887,20.5,74162.3,2.43,-3.71,-4.65,0,*7F
1531098021.37,46888,20.5,74160.8,2.41,-3.15,-4.29,0,*78
1531098022.57,46889,20.5,74160.3,2.41,-2.95,-4.13,0,*79
1531098023.79,46890,20.5,74156.5,2.41,-2.63,-4.17,0,*7C
1531098025.03,46891,20.5,74158.8,2.41,-2.51,-4.01,0,*7B
1531098026.22,46892,20.5,74162.3,2.41,-2.35,-3.39,0,*76
1531098027.47,46893,20.5,74160.5,2.41,-1.83,-2.71,0,*74
1531098028.7,46894,20.5,74158.8,2.41,-1.33,-2.07,0,*79
1531098029.94,46895,20.5,74158.8,2.41,-1.09,-1.83,0,*7E
1531098031.19,46896,20.5,74158.0,2.43,-0.73,-1.47,0,*4B
1531098032.38,46897,20.5,74160.8,2.41,-0.57,-1.25,0,*4A
1531098033.59,46898,20.5,74162.0,2.43,-0.45,-1.25,0,*44
1531098034.77,46899,20.5,74158.5,2.41,-0.37,-1.25,0,*42
1531098036.01,46900,20.5,74156.5,2.43,-0.33,-1.35,0,*44
1531098037.25,46901,20.5,74160.0,2.41,-0.23,-1.35,0,*46
1531098038.49,46902,20.5,74162.5,2.43,-0.27,-1.63,0,*40
1531098039.73,46903,20.5,74162.8,2.43,-0.49,-2.07,0,*48
1531098040.95,46904,20.5,74160.8,2.45,-0.73,-2.03,0,*44
1531098042.18,46905,20.5,74162.8,2.45,-0.93,-1.83,0,*40
1531098043.39,46906,20.5,74160.0,2.45,-0.97,-1.55,0,*4C
1531098044.63,46907,20.5,74160.3,2.45,-0.85,-1.39,0,*44
1531098045.84,46908,20.5,74158.3,2.45,-0.85,-1.29,0,*4A
1531098047.08,46909,20.5,74162.3,2.47,-0.85,-1.21,0,*41
1531098048.29,46910,20.5,74160.0,2.45,-0.81,-1.09,0,*45
1531098049.5,46911,20.5,74162.3,2.45,-0.57,-1.09,0,*4F
1531098050.73,46912,20.5,74158.0,2.47,-0.45,-1.05,0,*41
1531098051.96,46913,20.5,74162.3,2.47,-0.45,-1.09,0,*4C
1531098053.17,46914,20.5,74162.5,2.47,-0.57,-1.29,0,*4A
1531098054.41,46915,20.5,74162.3,2.47,-0.69,-1.43,0,*4A
1531098055.65,46916,20.5,74160.8,2.47,-0.73,-1.43,0,*42
1531098056.88,46917,20.5,74160.0,2.47,-0.81,-1.47,0,*4A
1531098058.09,46918,20.5,74164.0,2.47,-0.69,-1.55,0,*40
1531098059.3,46919,20.5,74162.0,2.47,-0.65,-1.79,0,*43
1531098060.52,46920,20.5,74160.5,2.49,-0.69,-2.11,0,*46
1531098061.75,46921,20.5,74158.0,2.49,-0.93,-2.55,0,*42
1531098062.97,46922,20.5,74162.0,2.49,-1.05,-2.87,0,*70
1531098064.16,46923,20.5,74162.5,2.49,-1.29,-3.07,0,*76
1531098065.35,46924,20.5,74158.5,2.49,-1.63,-3.19,0,*70
1531098066.53,46925,20.5,74160.8,2.49,-1.79,-2.91,0,*7B
1531098067.78,46926,20.5,74162.0,2.49,-1.87,-2.67,0,*70
1531098069.0,46927,20.5,74156.5,2.49,-1.91,-2.31,0,*75
1531098070.21,46928,20.5,74160.5,2.49,-1.87,-2.15,0,*7B
1531098071.45,46929,20.5,74160.8,2.51,-1.79,-2.11,0,*76
1531098072.69,46930,20.5,74160.8,2.51,-1.75,-2.03,0,*71
1531098073.9,46931,20.5,74162.0,2.51,-1.67,-1.75,0,*71
1531098075.09,46932,20.5,74162.0,2.49,-1.29,-1.25,0,*74
1531098076.31,46933,20.5,74164.0,2.49,-1.01,-0.81,0,*40
1531098077.52,46934,20.5,74160.0,2.51,-0.49,-0.41,0,*7F
1531098078.72,46935,20.5,74160.8,2.49,-0.19,-0.27,0,*72
1531098079.93,46936,20.5,74162.5,2.51,0.17,0.05,0,*46
1531098081.17,46937,20.5,74162.8,2.51,0.37,0.37,0,*74
1531098082.41,46938,20.5,74162.3,2.51,0.71,0.55,0,*7D
1531098083.65,46939,20.5,74156.8,2.51,0.83,0.67,0,*70
1531098084.89,46940,20.5,74158.3,2.51,0.95,0.79,0,*76
1531098086.12,46941,20.5,74156.5,2.51,1.05,0.83,0,*4A
1531098087.37,46942,20.5,74156.0,2.51,1.17,0.95,0,*4D
1531098088.57,46943,20.5,74156.5,2.53,1.33,0.97,0,*4A
1531098089.79,46944,20.5,74160.0,2.53,1.43,0.95,0,*48
1531098091.01,46945,20.5,74158.8,2.53,1.43,0.83,0,*4E
1531098092.23,46946,20.5,74160.8,2.57,1.47,0.75,0,*44
1531098093.47,46947,20.5,74162.5,2.53,1.37,0.59,0,*48
1531098094.7,46948,20.5,74160.8,2.53,1.25,0.51,0,*4C
1531098095.93,46949,20.5,74162.5,2.53,1.21,0.41,0,*48
1531098097.15,46950,20.5,74162.8,2.57,1.17,0.41,0,*41
1531098098.35,46951,20.5,74162.0,2.57,1.05,0.55,0,*46
1531098099.58,46952,20.5,74160.0,2.57,1.09,0.79,0,*47
1531098100.78,46953,20.5,74156.0,2.53,1.01,0.87,0,*4B
1531098101.99,46954,20.5,74162.0,2.57,1.13,1.01,0,*74
1531098103.2,46955,20.5,74160.0,2.57,1.17,1.05,0,*75
1531098104.43,46956,20.5,74160.5,2.53,1.25,1.13,0,*74
1531098105.66,46957,20.5,74162.5,2.57,1.37,1.25,0,*77
1531098106.88,46958,20.5,74160.0,2.57,1.59,1.37,0,*73
1531098108.1,46959,20.5,74158.5,2.57,1.47,1.43,0,*7E
1531098109.32,46960,20.5,74156.5,2.57,1.59,1.47,0,*7F
1531098110.51,46961,20.5,74160.8,2.57,1.71,1.41,0,*72
1531098111.74,46962,20.5,74160.3,2.57,1.63,1.25,0,*70
1531098112.96,46963,20.5,74160.0,2.57,1.71,1.17,0,*73
1531098114.16,46964,20.5,74160.3,2.57,1.71,0.97,0,*4D
1531098115.38,46965,20.5,74160.0,2.57,1.63,0.67,0,*40
1531098116.62,46966,20.5,74160.8,2.59,1.51,0.55,0,*4D
1531098117.87,46967,20.5,74160.5,2.59,1.47,0.51,0,*4F
1531098119.12,46968,20.5,74158.0,2.59,1.47,0.63,0,*41
1531098120.37,46969,20.5,74162.8,2.59,1.47,0.51,0,*41
1531098121.57,46970,20.5,74160.0,2.61,1.33,0.43,0,*42
1531098122.82,46971,20.5,74158.5,2.59,1.17,0.33,0,*49
1531098124.05,46972,20.5,74160.3,2.59,1.17,0.43,0,*4D
1531098125.31,46973,20.5,74162.0,2.59,1.17,0.51,0,*4F
1531098126.54,46974,20.5,74160.3,2.61,1.17,0.59,0,*4B
1531098127.76,46975,20.5,74162.0,2.59,1.05,0.51,0,*4A
1531098128.97,46976,20.5,74160.0,2.61,1.05,0.55,0,*46
1531098130.19,46977,20.5,74162.3,2.59,0.97,0.55,0,*76
1531098131.41,46978,20.5,74160.3,2.59,0.97,0.63,0,*7C
1531098132.66,46979,20.5,74160.3,2.59,0.91,0.75,0,*7C
1531098133.88,46980,20.5,74162.5,2.61,0.91,0.79,0,*7D
1531098135.13,46981,20.5,74162.3,2.59,0.87,0.75,0,*7C
1531098136.35,46982,20.5,74164.3,2.61,0.79,0.79,0,*79
1531098137.58,46983,20.5,74160.0,2.59,0.67,0.63,0,*77
1531098138.79,46984,20.5,74158.3,2.61,0.71,0.71,0,*7F
1531098140.0,46985,20.5,74160.0,2.61,0.71,0.67,0,*79
1531098141.2,46986,20.44,74154.8,2.61,0.67,0.67,0,*7D
1531098142.42,46987,20.5,74156.3,2.61,0.59,0.59,0,*7C
1531098143.64,46988,20.5,74156.8,2.61,0.55,0.59,0,*7F
1531098144.85,46989,20.5,74160.0,2.61,0.55,0.67,0,*73
1531098146.04,46990,20.5,74158.8,2.61,0.43,0.59,0,*71
1531098147.25,46991,20.5,74160.0,2.61,0.47,0.67,0,*79
1531098148.42,46992,20.5,74158.5,2.61,0.43,0.67,0,*7E
1531098149.64,46993,20.5,74158.8,2.61,0.47,0.83,0,*71
1531098150.81,46994,20.5,74158.5,2.61,0.43,0.95,0,*75
1531098152.01,46995,20.5,74158.5,2.61,0.55,1.01,0,*4F
1531098153.24,46996,20.5,74158.0,2.63,0.67,1.17,0,*48
1531098154.48,46997,20.5,74156.8,2.63,0.71,1.17,0,*4E
1531098155.72,46998,20.5,74160.3,2.63,0.71,1.21,0,*44
1531098156.97,46999,20.5,74158.0,2.63,0.83,1.29,0,*40
1531098158.21,47000,20.5,74156.3,2.63,0.83,1.29,0,*48
1531098159.43,47001,20.5,74152.5,2.65,0.95,1.33,0,*43
1531098160.67,47002,20.5,74154.8,2.63,0.95,1.29,0,*4D
1531098161.92,47003,20.5,74158.5,2.63,0.95,1.33,0,*47
1531098163.14,47004,20.5,74158.5,2.63,1.01,1.33,0,*7C
1531098164.33,47005,20.5,74160.0,2.63,1.01,1.41,0,*78
1531098165.56,47006,20.5,74158.3,2.65,1.09,1.47,0,*73
1531098166.78,47007,20.5,74156.0,2.63,1.05,1.51,0,*7F
1531098168.02,47008,20.5,74156.5,2.65,1.21,1.55,0,*74
1531098169.25,47009,20.5,74156.5,2.65,1.21,1.59,0,*79
1531098170.48,47010,20.5,74158.5,2.65,1.25,1.59,0,*75
1531098171.71,47011,20.5,74160.3,2.65,1.21,1.67,0,*7D
1531098172.94,47012,20.5,74160.3,2.65,1.25,1.71,0,*7D
1531098174.14,47013,20.5,74158.8,2.65,1.25,1.79,0,*74
1531098175.37,47014,20.5,74160.0,2.65,1.25,1.67,0,*7C
1531098176.6,47015,20.5,74158.3,2.65,1.21,1.67,0,*79
1531098177.84,47016,20.5,74156.0,2.65,1.21,1.59,0,*77
1531098179.07,47017,20.5,74160.5,2.65,1.21,1.47,0,*79
1531098180.31,47018,20.5,74160.8,2.65,1.21,1.37,0,*71
1531098181.54,47019,20.5,74162.5,2.65,1.21,1.25,0,*73
1531098182.8,47020,20.5,74158.3,2.67,1.17,1.13,0,*7B
1531098184.02,47021,20.5,74154.8,2.67,1.17,0.97,0,*47
1531098185.28,47022,20.5,74158.0,2.67,1.13,0.87,0,*41
1531098186.54,47023,20.5,74152.5,2.67,1.09,0.91,0,*4C
1531098187.76,47024,20.5,74156.3,2.67,1.09,0.97,0,*4D
1531098188.99,47025,20.5,74156.0,2.67,1.09,1.01,0,*72
1531098190.19,47026,20.5,74154.8,2.67,0.97,0.97,0,*79
1531098191.38,47027,20.5,74154.3,2.67,0.97,0.97,0,*78
1531098192.63,47028,20.5,74152.5,2.67,0.87,1.09,0,*40
1531098193.88,47029,20.44,74154.8,2.67,0.87,1.09,0,*41
1531098195.13,47030,20.5,74154.5,2.67,0.87,1.13,0,*42
1531098196.38,47031,20.5,74158.3,2.67,0.87,1.17,0,*47
1531098197.62,47032,20.5,74152.8,2.67,0.87,1.17,0,*44
1531098198.88,47033,20.5,74154.0,2.69,0.91,1.09,0,*43
1531098200.14,47034,20.5,74158.3,2.69,0.91,1.13,0,*4F
1531098201.36,47035,20.5,74158.0,2.67,0.97,1.13,0,*46
1531098202.59,47036,20.5,74156.5,2.67,1.01,1.09,0,*70
1531098203.82,47037,20.5,74154.8,2.69,0.97,1.09,0,*41
1531098205.04,47038,20.5,74156.0,2.69,0.87,0.97,0,*79
1531098206.28,47039,20.5,74152.5,2.69,0.75,0.79,0,*75
1531098207.51,47040,20.5,74156.8,2.67,0.67,0.63,0,*7D
1531098208.76,47041,20.5,74156.5,2.69,0.55,0.55,0,*76
1531098209.99,47042,20.5,74158.8,2.69,0.51,0.43,0,*76
1531098211.23,47043,20.5,74156.0,2.69,0.51,0.55,0,*70
1531098212.48,47044,20.5,74152.8,2.69,0.51,0.55,0,*77
1531098213.72,47045,20.44,74154.5,2.69,0.51,0.63,0,*73
1531098214.96,47046,20.5,74156.0,2.69,0.51,0.67,0,*74
1531098216.2,47047,20.5,74154.0,2.69,0.51,0.67,0,*75
1531098217.45,47048,20.5,74152.8,2.69,0.55,0.75,0,*7D
1531098218.7,47049,20.44,74148.0,2.69,0.55,0.79,0,*70
1531098219.94,47050,20.5,74150.3,2.69,0.51,0.79,0,*7C
1531098221.18,47051,20.5,74148.8,2.69,0.37,0.63,0,*76
1531098222.43,47052,20.5,74152.3,2.69,0.29,0.51,0,*7B
1531098223.67,47053,20.5,74152.8,2.69,0.17,0.51,0,*77
1531098224.91,47054,20.5,74152.3,2.69,0.25,0.29,0,*7E
1531098226.15,47055,20.5,74150.8,2.69,0.17,0.13,0,*77
1531098227.31,47056,20.5,74154.0,2.71,0.09,0.05,0,*75
1531098228.48,47057,20.5,74154.0,2.71,-0.03,0.05,0,*53
1531098229.69,47058,20.5,74154.0,2.67,-0.19,-0.19,0,*70
1531098230.9,47059,20.5,74154.8,2.69,-0.29,-0.57,0,*76
1531098232.12,47060,20.5,74154.8,2.69,-0.61,-0.93,0,*78
1531098233.37,47061,20.5,74152.0,2.69,-0.85,-0.93,0,*73
1531098234.64,47062,20.5,74152.5,2.69,-0.85,-1.05,0,*4E
1531098235.87,47063,20.44,74154.0,2.69,-0.81,-0.93,0,*75
1531098237.1,47064,20.5,74154.8,2.69,-0.73,-0.93,0,*7F
1531098238.32,47065,20.44,74152.5,2.69,-0.73,-0.73,0,*70
1531098239.5,47066,20.5,74152.8,2.71,-0.65,-0.45,0,*78
1531098240.68,47067,20.5,74154.0,2.71,-0.37,-0.29,0,*74
1531098241.89,47068,20.5,74152.5,2.71,-0.27,-0.41,0,*74
1531098243.1,47069,20.44,74152.3,2.71,-0.27,-0.45,0,*71
1531098244.3,47070,20.5,74152.3,2.71,-0.19,-0.27,0,*70
1531098245.49,47071,20.5,74156.5,2.71,-0.19,-0.19,0,*7C
1531098246.67,47072,20.5,74158.8,2.71,-0.15,-0.19,0,*73
1531098247.85,47073,20.5,74156.0,2.71,-0.15,-0.29,0,*71
1531098249.08,47074,20.44,74152.8,2.71,-0.27,-0.27,0,*79
1531098250.26,47075,20.5,74158.3,2.71,-0.29,-0.29,0,*78
1531098251.44,47076,20.5,74156.8,2.71,-0.53,-0.45,0,*7C
1531098252.62,47077,20.44,74152.5,2.71,-0.65,-0.53,0,*7F
1531098253.83,47078,20.5,74156.8,2.73,-0.65,-0.45,0,*75
1531098255.01,47079,20.5,74156.5,2.71,-0.69,-0.45,0,*7A
1531098256.2,47080,20.5,74156.0,2.71,-0.69,-0.45,0,*7C
1531098257.38,47081,20.5,74156.0,2.71,-0.69,-0.53,0,*7A
1531098258.56,47082,20.44,74152.0,2.71,-0.81,-0.45,0,*78
1531098259.75,47083,20.5,74156.5,2.71,-0.81,-0.29,0,*73
1531098260.96,47084,20.44,74154.8,2.71,-0.89,-0.41,0,*72
1531098262.17,47085,20.5,74156.5,2.71,-1.01,-0.45,0,*46
1531098263.39,47086,20.5,74160.3,2.71,-1.01,-0.45,0,*45
1531098264.64,47087,20.5,74158.0,2.73,-1.01,-0.41,0,*42
1531098265.86,47088,20.5,74158.5,2.71,-1.01,-0.41,0,*4F
1531098267.11,47089,20.5,74156.8,2.73,-1.01,-0.41,0,*4C
1531098268.34,47090,20.5,74158.3,2.71,-0.89,-0.27,0,*77
1531098269.52,47091,20.5,74158.3,2.71,-0.65,-0.07,0,*46
1531098270.7,47092,20.44,74154.8,2.71,-0.41,0.05,0,*6C
1531098271.93,47093,20.5,74160.0,2.73,-0.19,0.21,0,*54
1531098273.13,47094,20.44,74152.8,2.71,-0.19,0.29,0,*59
1531098274.32,47095,20.44,74154.8,2.71,-0.07,0.41,0,*69
1531098275.55,47096,20.5,74156.8,2.73,-0.03,0.41,0,*6C
1531098276.77,47097,20.5,74156.3,2.73,0.05,0.41,0,*46
1531098278.01,47098,20.44,74156.0,2.73,0.17,0.47,0,*7C
1531098279.23,47099,20.5,74156.8,2.71,0.29,0.47,0,*72
1531098280.48,47100,20.5,74158.3,2.73,0.29,0.59,0,*7E
1531098281.69,47101,20.44,74156.0,2.71,0.41,0.71,0,*79
1531098282.94,47102,20.5,74160.0,2.73,0.47,0.67,0,*79
1531098284.18,47103,20.5,74160.3,2.73,0.47,0.71,0,*7F
1531098285.43,47104,20.5,74158.0,2.73,0.59,0.71,0,*77
1531098286.68,47105,20.5,74156.8,2.73,0.71,0.83,0,*71
1531098287.9,47106,20.5,74156.0,2.71,0.79,0.83,0,*78
1531098289.15,47107,20.5,74162.0,2.73,0.91,0.95,0,*7A
1531098290.39,47108,20.44,74160.3,2.73,0.95,0.95,0,*71
1531098291.62,47109,20.5,74156.8,2.73,0.95,1.01,0,*4C
1531098292.85,47110,20.44,74158.0,2.71,0.91,0.91,0,*7A
1531098294.1,47111,20.5,74156.5,2.73,0.79,0.79,0,*79
1531098295.32,47112,20.5,74158.3,2.71,0.59,0.59,0,*78
1531098296.57,47113,20.44,74156.0,2.73,0.55,0.47,0,*78
1531098297.81,47114,20.44,74156.5,2.73,0.41,0.33,0,*79
1531098299.06,47115,20.5,74156.0,2.73,0.21,0.17,0,*78
1531098300.26,47116,20.44,74152.5,2.73,0.05,-0.03,0,*55
1531098301.46,47117,20.44,74154.0,2.73,-0.07,-0.03,0,*7B
1531098302.67,47118,20.44,74156.0,2.73,-0.15,-0.15,0,*70
1531098303.89,47119,20.5,74158.3,2.75,-0.23,-0.11,0,*76
1531098305.08,47120,20.5,74156.8,2.75,-0.41,-0.11,0,*78
1531098306.27,47121,20.44,74156.0,2.75,-0.53,-0.15,0,*7E
1531098307.46,47122,20.44,74156.0,2.71,-0.77,-0.15,0,*7F
1531098308.66,47123,20.44,74156.8,2.73,-0.65,0.05,0,*63
1531098309.89,47124,20.5,74156.3,2.75,-0.27,0.37,0,*55
1531098311.09,47125,20.44,74156.8,2.75,-0.03,0.51,0,*62
1531098312.32,47126,20.5,74162.5,2.75,0.21,0.51,0,*7C
1531098313.51,47127,20.5,74156.8,2.75,0.43,0.59,0,*71
1531098314.73,47128,20.5,74158.5,2.75,0.47,0.75,0,*74
1531098315.95,47129,20.44,74152.0,2.75,0.51,0.83,0,*7B
1531098317.18,47130,20.44,74152.5,2.75,0.51,0.87,0,*77
1531098318.37,47131,20.44,74150.3,2.79,0.55,0.97,0,*7F
1531098319.56,47132,20.44,74150.8,2.75,0.63,0.97,0,*75
1531098320.77,47133,20.44,74156.3,2.75,0.71,0.95,0,*75
1531098321.99,47134,20.5,74156.0,2.75,0.75,0.95,0,*76
1531098323.2,47135,20.5,74156.5,2.75,0.75,0.95,0,*77
1531098324.42,47136,20.44,74154.0,2.75,0.75,0.87,0,*77
1531098325.64,47137,20.5,74154.0,2.79,0.79,0.87,0,*76
1531098326.87,47138,20.5,74158.3,2.75,0.71,0.59,0,*7E
1531098328.09,47139,20.44,74154.8,2.75,0.63,0.37,0,*74
1531098329.28,47140,20.44,74154.5,2.75,0.59,0.09,0,*4E
1531098330.48,47141,20.44,74156.5,2.75,0.33,-0.15,0,*53
1531098331.66,47142,20.44,74152.5,2.75,-0.03,-0.61,0,*4D
1531098332.84,47143,20.5,74152.3,2.75,-0.49,-0.77,0,*75
1531098334.06,47144,20.5,74152.5,2.75,-0.73,-1.01,0,*4B
1531098335.29,47145,20.5,74154.3,2.75,-0.85,-1.13,0,*40
1531098336.49,47146,20.44,74152.0,2.75,-1.17,-1.29,0,*70
1531098337.69,47147,20.5,74158.3,2.75,-1.71,-1.63,0,*7F
1531098338.92,47148,20.44,74154.5,2.79,-2.11,-1.71,0,*7A
1531098340.11,47149,20.5,74154.8,2.79,-2.23,-1.79,0,*72
1531098341.3,47150,20.44,74154.8,2.79,-2.27,-1.71,0,*76
1531098342.52,47151,20.44,74152.0,2.75,-2.39,-1.83,0,*79
1531098343.74,47152,20.44,74154.8,2.79,-2.71,-2.19,0,*7A
1531098344.98,47153,20.44,74154.0,2.79,-2.75,-1.99,0,*74
1531098346.23,47154,20.44,74154.8,2.75,-2.71,-1.99,0,*7B
1531098347.48,47155,20.44,74152.0,2.75,-2.71,-2.03,0,*7A
1531098348.73,47156,20.44,74152.0,2.75,-2.47,-1.91,0,*74
1531098349.95,47157,20.44,74152.0,2.75,-2.27,-1.99,0,*7B
1531098351.16,47158,20.44,74154.0,2.75,-2.23,-2.11,0,*73
1531098352.39,47159,20.44,74156.5,2.75,-2.47,-2.23,0,*71
1531098353.61,47160,20.44,74152.5,2.75,-2.79,-2.47,0,*74
1531098354.81,47161,20.44,74154.5,2.75,-2.79,-2.35,0,*70
1531098356.03,47162,20.44,74152.5,2.75,-2.63,-2.15,0,*7A
1531098357.25,47163,20.5,74154.3,2.75,-2.51,-2.39,0,*74
1531098358.44,47164,20.44,74152.3,2.75,-2.99,-2.87,0,*72
1531098359.63,47165,20.44,74152.5,2.75,-3.23,-2.91,0,*74
1531098360.85,47166,20.44,74150.8,2.75,-3.47,-3.03,0,*7F
1531098362.1,47167,20.44,74152.0,2.73,-3.59,-3.07,0,*73
1531098363.35,47168,20.44,74154.3,2.73,-3.59,-2.95,0,*76
1531098364.63,47169,20.44,74152.5,2.73,-3.59,-2.75,0,*79
1531098365.88,47170,20.44,74154.8,2.75,-3.55,-2.71,0,*7F
1531098367.1,47171,20.44,74152.5,2.79,-3.35,-2.59,0,*7E
1531098368.33,47172,20.5,74154.8,2.75,-3.27,-2.51,0,*7A
1531098369.55,47173,20.44,74154.0,2.75,-3.15,-2.51,0,*7A
1531098370.78,47174,20.44,74148.0,2.75,-3.11,-2.47,0,*7E
1531098371.97,47175,20.44,74150.0,2.75,-3.03,-2.23,0,*7E
1531098373.17,47176,20.44,74150.5,2.75,-2.79,-2.15,0,*74
1531098374.42,47177,20.44,74154.8,2.73,-2.83,-2.51,0,*76
1531098375.63,47178,20.44,74154.8,2.73,-3.03,-2.43,0,*73
1531098376.85,47179,20.44,74150.3,2.73,-3.03,-2.27,0,*70
1531098378.09,47180,20.44,74150.0,2.73,-2.83,-1.95,0,*75
1531098379.34,47181,20.44,74148.8,2.73,-2.51,-1.75,0,*75
1531098380.53,47182,20.44,74154.0,2.75,-2.35,-1.63,0,*75
1531098381.78,47183,20.5,74156.8,2.73,-2.31,-1.43,0,*74
1531098383.0,47184,20.5,74156.0,2.75,-2.03,-1.17,0,*75
1531098384.22,47185,20.44,74152.5,2.75,-1.83,-1.17,0,*7F
1531098385.46,47186,20.44,74154.0,2.73,-1.91,-1.29,0,*74
1531098386.7,47187,20.44,74154.3,2.73,-1.95,-1.17,0,*7C
1531098387.97,47188,20.44,74156.0,2.73,-1.87,-1.01,0,*77
1531098389.18,47189,20.5,74158.0,2.75,-1.75,-0.89,0,*4C
1531098390.36,47190,20.44,74154.8,2.75,-1.63,-0.61,0,*45
1531098391.56,47191,20.44,74154.0,2.75,-1.25,-0.15,0,*45
1531098392.76,47192,20.5,74156.0,2.79,-0.81,0.17,0,*5A
1531098393.95,47193,20.44,74154.8,2.75,-0.41,0.43,0,*5A
1531098395.12,47194,20.44,74154.3,2.75,-0.03,0.43,0,*6B
1531098396.31,47195,20.44,74154.3,2.75,0.09,0.25,0,*4D
1531098397.5,47196,20.44,74156.5,2.75,0.09,0.13,0,*4B
1531098398.68,47197,20.44,74154.8,2.75,0.01,-0.11,0,*6D
1531098399.87,47198,20.44,74154.0,2.75,-0.11,-0.37,0,*7A
1531098401.06,47199,20.44,74154.5,2.75,-0.33,-0.73,0,*7B
1531098402.3,47200,20.44,74152.8,2.73,-0.69,-1.05,0,*41
1531098403.51,47201,20.44,74154.8,2.75,-0.77,-1.09,0,*45
1531098404.73,47202,20.44,74156.5,2.75,-1.13,-1.17,0,*7A
1531098405.95,47203,20.44,74156.0,2.75,-1.35,-1.17,0,*7F
1531098407.15,47204,20.44,74154.3,2.75,-1.59,-1.13,0,*76
1531098408.36,47205,20.44,74156.5,2.79,-1.55,-0.85,0,*49
1531098409.55,47206,20.44,74152.0,2.75,-1.59,-0.77,0,*47
1531098410.77,47207,20.44,74154.8,2.75,-1.39,-0.53,0,*46
1531098412.01,47208,20.44,74154.5,2.79,-1.13,-0.23,0,*4A
1531098413.18,47209,20.44,74152.5,2.79,-0.81,0.01,0,*6C
1531098414.38,47210,20.44,74152.8,2.79,-0.45,0.25,0,*5A
1531098415.58,47211,20.44,74152.0,2.75,-0.15,0.33,0,*55
1531098416.78,47212,20.44,74156.0,2.75,0.21,0.43,0,*7B
1531098418.0,47213,20.44,74158.5,2.79,0.41,0.55,0,*77
1531098419.22,47214,20.44,74154.5,2.75,0.51,0.59,0,*71
1531098420.44,47215,20.44,74154.8,2.75,0.63,0.63,0,*78
1531098421.66,47216,20.44,74150.8,2.75,0.83,0.63,0,*75
1531098422.89,47217,20.44,74156.5,2.79,0.91,0.79,0,*70
1531098424.12,47218,20.5,74156.8,2.75,0.87,0.83,0,*71
1531098425.34,47219,20.44,74158.5,2.75,0.87,0.75,0,*79
1531098426.57,47220,20.44,74152.8,2.79,0.91,0.79,0,*74
1531098427.8,47221,20.44,74158.3,2.79,0.91,0.75,0,*79
1531098429.02,47222,20.5,74154.0,2.79,0.79,0.67,0,*7F
1531098430.23,47223,20.44,74154.5,2.79,0.75,0.63,0,*76
1531098431.45,47224,20.44,74152.0,2.75,0.75,0.63,0,*7D
1531098432.67,47225,20.5,74154.8,2.75,0.71,0.63,0,*78
1531098433.89,47226,20.44,74152.0,2.75,0.75,0.59,0,*76
1531098435.11,47227,20.44,74156.5,2.75,0.75,0.63,0,*7E
1531098436.34,47228,20.44,74154.8,2.79,0.91,0.71,0,*74
1531098437.57,47229,20.44,74152.8,2.79,0.91,0.75,0,*71
1531098438.8,47230,20.44,74156.0,2.79,1.09,0.63,0,*4E
1531098440.01,47231,20.5,74156.0,2.75,1.01,0.55,0,*4E
1531098441.21,47232,20.44,74154.5,2.79,0.97,0.51,0,*7B
1531098442.41,47233,20.44,74152.0,2.79,0.97,0.47,0,*7D
1531098443.63,47234,20.44,74152.5,2.75,0.83,0.25,0,*77
1531098444.83,47235,20.44,74158.3,2.79,0.79,0.05,0,*4D
1531098446.03,47236,20.44,74154.5,2.79,0.75,-0.37,0,*5E
1531098447.24,47237,20.44,74156.5,2.79,0.75,-0.73,0,*5F
1531098448.46,47238,20.44,74152.8,2.79,0.67,-1.09,0,*6F
1531098449.66,47239,20.44,74152.5,2.79,0.63,-1.67,0,*62
1531098450.87,47240,20.44,74152.3,2.79,0.51,-1.67,0,*6D
1531098452.08,47241,20.44,74154.5,2.79,0.55,-1.59,0,*65
1531098453.29,47242,20.44,74152.8,2.75,0.51,-1.63,0,*67
1531098454.52,47243,20.44,74154.5,2.79,0.51,-1.83,0,*64
1531098455.72,47244,20.44,74152.5,2.79,0.41,-2.35,0,*6C
1531098456.95,47245,20.44,74152.0,2.79,0.29,-2.71,0,*63
1531098458.13,47246,20.44,74152.5,2.79,0.05,-3.35,0,*5F
1531098459.32,47247,20.5,74158.3,2.79,-0.19,-3.95,0,*44
1531098460.51,47248,20.44,74154.8,2.79,-0.37,-4.53,0,*4A
1531098461.73,47249,20.44,74152.5,2.79,-0.73,-4.85,0,*40
1531098462.92,47250,20.44,74152.5,2.79,-0.73,-4.99,0,*45
1531098464.17,47251,20.44,74154.3,2.75,-0.97,-5.23,0,*42
1531098465.41,47252,20.44,74154.0,2.79,-1.09,-5.31,0,*78
1531098466.61,47253,20.44,74154.0,2.79,-1.25,-5.47,0,*76
1531098467.83,47254,20.44,74154.0,2.79,-1.43,-5.51,0,*76
1531098469.05,47255,20.44,74152.3,2.75,-1.59,-5.61,0,*73
1531098470.27,47256,20.44,74154.3,2.79,-1.67,-5.69,0,*79
1531098471.48,47257,20.44,74152.0,2.79,-1.75,-5.69,0,*7B
1531098472.73,47258,20.44,74152.8,2.75,-1.91,-5.81,0,*74
1531098473.97,47259,20.5,74156.8,2.79,-1.99,-5.77,0,*78
1531098475.22,47260,20.44,74150.0,2.75,-2.03,-5.73,0,*7A
1531098476.46,47261,20.44,74154.8,2.79,-2.11,-5.69,0,*7F
1531098477.68,47262,20.44,74150.0,2.75,-2.23,-5.73,0,*7A
1531098478.87,47263,20.44,74154.0,2.79,-2.19,-5.55,0,*7A
1531098480.1,47264,20.44,74150.5,2.75,-2.27,-5.61,0,*7B
1531098481.29,47265,20.44,74152.5,2.75,-2.27,-5.47,0,*7E
1531098482.48,47266,20.44,74150.5,2.75,-2.27,-5.43,0,*79
1531098483.67,47267,20.44,74150.5,2.75,-2.23,-5.39,0,*71
1531098484.89,47268,20.44,74148.5,2.75,-2.23,-5.27,0,*71
1531098486.11,47269,20.44,74152.8,2.75,-2.27,-5.31,0,*73
1531098487.33,47270,20.44,74150.0,2.75,-2.27,-5.19,0,*71
1531098488.55,47271,20.44,74148.3,2.75,-2.23,-5.11,0,*7C
1531098489.77,47272,20.44,74150.5,2.75,-2.15,-5.07,0,*7D
1531098490.99,47273,20.44,74150.3,2.75,-2.15,-4.93,0,*70
1531098492.21,47274,20.44,74150.0,2.75,-2.15,-4.93,0,*77
1531098493.46,47275,20.44,74148.0,2.75,-1.99,-4.89,0,*7A
1531098494.71,47276,20.44,74150.5,2.75,-2.11,-4.89,0,*7A
1531098495.95,47277,20.44,74150.5,2.75,-1.91,-4.69,0,*7E
1531098497.15,47278,20.44,74148.8,2.75,-1.75,-4.65,0,*77
1531098498.35,47279,20.44,74148.5,2.75,-1.75,-4.57,0,*77
1531098499.54,47280,20.44,74148.5,2.75,-1.63,-4.53,0,*72
1531098500.76,47281,20.44,74148.0,2.73,-1.55,-4.49,0,*7B
1531098501.98,47282,20.44,74148.3,2.75,-1.39,-4.45,0,*78
1531098503.2,47283,20.44,74150.5,2.75,-1.35,-4.65,0,*77
1531098504.4,47284,20.44,74148.3,2.75,-1.29,-4.53,0,*78
1531098505.6,47285,20.44,74150.5,2.75,-1.25,-4.53,0,*75
1531098506.82,47286,20.44,74154.8,2.75,-1.01,-4.13,0,*74
1531098508.06,47287,20.44,74148.0,2.75,-0.97,-4.01,0,*48
1531098509.28,47288,20.44,74150.0,2.75,-0.97,-3.75,0,*43
1531098510.48,47289,20.44,74148.8,2.75,-0.77,-3.55,0,*4E
1531098511.67,47290,20.44,74148.5,2.75,-0.73,-3.23,0,*43
1531098512.85,47291,20.44,74148.5,2.75,-0.61,-3.23,0,*41
1531098514.06,47292,20.44,74152.3,2.73,-0.41,-3.15,0,*43
1531098515.24,47293,20.44,74150.0,2.75,-0.33,-3.15,0,*41
1531098516.46,47294,20.44,74150.3,2.75,-0.27,-2.99,0,*46
1531098517.69,47295,20.44,74152.0,2.73,-0.27,-2.43,0,*46
1531098518.9,47296,20.44,74150.8,2.73,-0.07,-2.27,0,*75
1531098520.13,47297,20.44,74154.0,2.73,-0.07,-1.95,0,*7E
1531098521.33,47298,20.44,74150.5,2.75,0.13,-1.51,0,*67
1531098522.56,47299,20.44,74148.5,2.73,0.17,-1.17,0,*66
1531098523.81,47300,20.44,74152.5,2.73,0.41,-0.93,0,*59
1531098525.06,47301,20.44,74150.3,2.73,0.47,-0.93,0,*5E
1531098526.29,47302,20.44,74148.5,2.73,0.47,-1.33,0,*66
1531098527.52,47303,20.44,74150.3,2.73,0.47,-1.75,0,*65